Погода в Секешфехерваре

Венгрия     47°11′28″N   18°25′21″E
темп.,
°C
ветер,
м/с
пор.,
м/с
влажн.,
%
обл.,
%
осадки,
мм/ч
давл.,
гПа
погр.,
м
27 февраля, сб
сб2701:00+9сз477913 0.0 1025146
04:00+8ссз7147567 0.0 1026611
07:00+5ссз9167384 0.0 1028681
10:00+7ссз91464100 0.0 1031790
13:00+10ссз8115663 0.0 10311020
16:00+8ссз912590 0.0 1031987
19:00+6ссз714670 0.0 1033732
22:00+5ссз612690 0.0 1034384
28 февраля, вс
вс2801:00+3ссз477815 0.0 1036207
04:00+4ссз247891 0.0 1035147
07:00+3сз348095 0.0 1035153
10:00+6зсз346540 0.0 1036438
13:00+8зсз445433 0.0 10351015
16:00+8сз35550 0.0 1033908
19:00+5зсз23690 0.0 103348
22:00+4зсз37750 0.0 1032152
1 марта, пн
пн101:00+3сз39720 0.0 1033249
04:00+2ссз38790 0.0 1031237
07:00+1с23870 0.0 103361
10:00+7юз02600 0.0 1034312
13:00+10вюв23520 0.0 10341159
16:00+10всв115124 0.0 10331143
19:00+7ююз016413 0.0 103522
22:00+5ююв01700 0.0 103622
2 марта, вт
вт201:00+4ю12770 0.0 103722
04:00+3юз12830 0.0 103622
07:00+3юз11860 0.0 103622
10:00+8зюз22650 0.0 1036353
13:00+11юз22510 0.0 1036907
16:00+11юз22520 0.0 1034692
19:00+7юз22640 0.0 103424
22:00+6зюз22660 0.0 103522
3 марта, ср
ср301:00+5зюз12710 0.0 103422
04:00+4зюз11770 0.0 103322
07:00+4зюз11770 0.0 103322
10:00+9юз23570 0.0 1033342
13:00+12юз23430 0.0 1032749
16:00+12юз224523 0.0 1030634
19:00+8юз125818 0.0 102922
22:00+7зюз11620 0.0 102922